Location: Miniere Montevecchio
(39.5567°N, 8.5683°E)
Time: 08:17:12
(UTC+00:00)

Daily predictions for brighter satellites

Satellite Brightness Start Highest point End
(mag) Time Altitude Azimuth Time Altitude Azimuth Time Altitude Azimuth
NOSS 3-1 (C) 3.6 16:23:11 10° SW 16:28:09 58° NW 16:33:59 10° NNE
NOSS 3-1 (A) 3.1 16:23:55 10° SSW 16:28:52 72° ESE 16:34:37 10° NE
Okean 3 Rocket 3.5 16:25:09 10° N 16:29:32 72° E 16:33:55 10° SSE
Cosmos 2322 4.2 16:28:52 10° NNW 16:34:34 69° WSW 16:40:14 10° SSE
Meteor 1-4 Rocket 4.0 16:32:52 10° NNE 16:34:58 16° ENE 16:37:06 10° ESE
NOSS 2-2 (E) 3.4 16:32:55 10° SW 16:36:08 55° NW 16:39:20 10° NNE
Cosmos 2333 Rocket 4.1 16:32:50 10° NW 16:37:56 35° WSW 16:43:01 10° S
Cosmos 2227 Rocket 3.0 16:34:31 10° SSE 16:39:29 33° ESE 16:44:29 10° NE
AQUARIUS 4.4 16:36:32 10° SSE 16:40:49 48° ENE 16:45:09 10° N
OPS 8737 4.4 16:38:16 10° NNW 16:41:19 60° NE 16:45:06 10° SE
Cosmos 2297 Rocket 2.4 16:35:55 10° S 16:41:26 56° ESE 16:46:58 10° NNE
Cosmos 864 Rocket 4.5 16:37:08 10° S 16:43:15 73° E 16:49:27 10° N
Cosmos 1441 Rocket 4.1 16:40:32 10° SSE 16:43:52 29° E 16:47:11 10° NNE
SeaSat 1 4.0 16:44:02 10° ENE 16:47:17 17° ESE 16:50:31 10° SSE
Aureole 1 Rocket 4.3 16:44:51 10° N 16:50:05 41° ENE 16:56:37 10° SE
SL-08 RB Rocket 3.7 16:51:22 10° SSE 16:55:45 57° ENE 17:00:09 10° N
CZ-4C R/B 4.4 16:54:29 10° NW 16:57:03 13° NNW 16:59:50 10° N
ISS -1.0 16:54:35 10° W 16:57:14 22° SW 16:59:54 10° S
Cosmos 2219 Rocket 4.0 16:52:24 10° NW 16:57:26 35° WSW 17:02:28 10° SSW
Iridium 4 Rocket 3.3 16:52:46 10° S 16:57:53 80° E 17:02:35 10° N
SL-08 R/B 3.2 16:54:09 10° NNE 16:58:47 87° ESE 17:03:23 10° SSW
Cosmos 2221 4.0 16:54:55 10° SSW 16:59:01 40° WNW 17:03:07 10° N
H-2A R/B 3.4 16:54:16 10° S 16:59:06 43° W 17:03:50 10° NNW
COSMOS 2428 3.5 16:54:00 10° NNW 16:59:33 57° WSW 17:05:03 10° S
ADEOS 3.5 16:54:41 10° SSE 16:59:53 79° ENE 17:05:07 10° N
NOAA 6 4.1 16:56:50 10° SSE 17:01:50 57° ENE 17:06:52 10° N
Meteor 1-5 Rocket 4.4 16:56:10 10° N 17:02:05 60° ENE 17:07:58 10° SSE
NOSS 2-2 (C) 4.0 16:59:51 10° WSW 17:03:02 38° NW 17:06:10 10° NNE
SJ 16-02 1.3 16:58:58 10° N 17:03:21 61° ENE 17:07:41 10° SSE
CZ-4B R/B 4.5 17:00:27 10° ESE 17:04:00 18° ENE 17:07:33 10° NNE
Cosmos 397 4.4 17:00:32 10° SSW 17:04:31 67° ESE 17:08:22 13° NE
Cosmos 1486 Rocket 4.2 17:01:56 10° NNW 17:07:08 74° WSW 17:12:19 10° S
CZ-2D R/B 4.0 17:04:01 10° S 17:07:43 54° W 17:11:29 10° NNW
Cosmos 1782 4.0 17:05:18 10° SSW 17:09:01 42° W 17:12:46 10° N
Meteor 1-14 Rocket 4.4 17:04:16 10° N 17:09:48 51° ENE 17:15:25 10° SSE
SL-16 R/B 3.3 17:06:14 10° N 17:10:39 23° NE 17:13:06 17° E
Cosmos 1346 Rocket 2.7 17:07:18 10° S 17:11:14 81° E 17:15:12 10° N
Cosmos 1544 3.7 17:08:36 10° NNW 17:12:01 56° W 17:15:24 10° S
BlueWalker 3 2.9 17:09:51 10° NNW 17:13:21 30° NNE 17:14:45 24° ENE
Cosmos 2263 Rocket 3.7 17:11:01 10° SE 17:14:12 15° E 17:14:12 15° E
SKYMED 2 3.7 17:11:44 10° NNE 17:15:58 50° E 17:20:11 10° S
Meteor 2-6 Rocket 4.3 17:11:08 10° S 17:16:57 60° E 17:22:39 10° NNE
ATLAS CENTAUR R/B 2.4 17:15:55 10° W 17:17:27 18° NW 17:18:07 15° NNW
Cosmos 1980 3.6 17:11:53 10° NNW 17:17:34 80° ENE 17:23:12 10° SSE
Cosmos 1666 4.4 17:14:37 10° NNW 17:18:05 35° W 17:21:31 10° SSW
ATLAS CENTAUR R/B 3.5 17:16:02 10° NW 17:19:38 29° WSW 17:23:01 10° S
Cosmos 2237 Rocket 2.1 17:15:28 10° NNW 17:21:12 80° ENE 17:26:53 10° SSE
Cosmos 1821 Rocket 3.9 17:15:18 10° S 17:21:32 74° E 17:27:42 10° N
NOSS 0 Rocket 4.4 17:16:41 10° NNW 17:22:51 64° WSW 17:29:00 10° S
CZ-4B DEB 4.4 17:18:53 10° SE 17:24:12 49° ENE 17:29:31 10° N
Cosmos 44 Rocket 3.9 17:23:09 10° NNW 17:27:40 36° NE 17:29:40 26° E
Cosmos 2219 3.2 17:23:13 10° SSW 17:28:54 69° ESE 17:33:31 16° NNE
ARGOS 4.2 17:24:21 10° S 17:29:34 48° W 17:34:48 10° NNW
Cosmos 2344 4.3 17:21:21 10° NNW 17:30:31 72° NE 17:43:25 10° SE
CZ-4C R/B 3.4 17:29:33 10° N 17:33:29 81° WNW 17:37:36 10° SSW
X-37B 1.0 17:31:55 10° W 17:34:03 36° NNW 17:34:03 36° NNW
SL-4 R/B 2.1 17:30:34 10° NW 17:34:40 52° NNE 17:35:39 41° E
CENTAUR R/B 4.4 17:31:29 10° NNW 17:37:10 20° NNE 17:38:38 20° NE
Cosmos 1805 Rocket 3.5 17:32:42 10° N 17:37:10 89° E 17:41:38 10° S
Cosmos 967 Rocket 4.5 17:32:58 10° NNW 17:39:16 83° WSW 17:45:31 10° SSE
Lacrosse 5 2.3 17:36:18 10° NNW 17:41:02 39° NE 17:41:53 36° ENE
Cosmos 1727 Rocket 4.2 17:36:27 10° N 17:42:36 73° W 17:48:47 10° S
Cosmos 220 Rocket 4.4 17:39:08 10° N 17:42:59 41° NE 17:42:59 41° NE
Atlas Centaur 2 3.8 17:42:25 10° SSW 17:45:54 17° SSE 17:47:42 14° SE
Meteor 1-27 Rocket 4.0 17:42:56 10° SSE 17:48:13 43° E 17:49:32 37° ENE
Cosmos 1151 Rocket 2.9 17:46:42 10° S 17:51:02 80° E 17:53:04 31° NNE
USA 229 DEB 4.3 17:46:29 10° SW 17:52:31 49° NW 17:57:38 16° NNE
USA 229 4.2 17:46:34 10° SW 17:52:36 50° NW 17:57:43 17° NNE
Sich 1 3.2 17:48:51 10° NNW 17:53:16 73° W 17:57:38 10° S
MINOTAUR 4 R/B 3.9 17:58:03 82° W 17:58:03 82° W 18:01:28 10° SSW
Cosmos 1605 Rocket 4.3 17:53:54 10° SSE 17:59:52 43° E 18:00:28 42° ENE
Cosmos 1461 3.0 17:56:38 10° NNW 18:01:17 90° SW 18:03:13 35° SSE
Cosmos 1777 Rocket 4.3 17:57:50 10° NNW 18:03:06 68° WSW 18:08:19 10° S
COSMO-SKYMED 1 3.6 17:59:57 10° N 18:04:01 45° WNW 18:08:08 10° SW
Tiangong -0.7 18:01:47 10° W 18:04:25 35° SW 18:04:25 35° SW
Meteor 1-11 Rocket 3.5 18:00:05 10° N 18:05:36 66° E 18:11:10 10° SSE
Cosmos 1328 Rocket 4.1 18:08:00 10° S 18:11:01 44° S 18:11:01 44° S
Cosmos 2123 Rocket 3.8 18:07:00 10° N 18:13:16 80° E 18:19:27 10° S
Cosmos 1515 4.4 18:10:31 10° SSW 18:14:10 50° W 18:14:28 48° WNW
Cosmos 1535 Rocket 4.4 18:13:38 10° S 18:20:01 83° E 18:23:56 25° N
Cosmos 2227 Rocket 3.6 18:18:21 10° WSW 18:23:26 34° WNW 18:27:18 16° N
SeaSat 1 2.9 18:23:47 44° N 18:25:03 57° WNW 18:29:52 10° SW
Cosmos 2297 Rocket 4.3 18:21:33 10° WSW 18:25:50 22° NW 18:30:08 10° N
MOS 1-B 4.4 18:26:40 10° S 18:32:26 75° WSW 18:38:13 10° NNW
Cosmos 2082 4.2 18:35:39 10° SW 18:41:15 56° WNW 18:42:15 49° NNW
CZ-4B R/B 3.5 18:38:31 10° S 18:44:01 64° WSW 18:49:28 10° NNW
Cosmos 1763 Rocket 4.3 18:48:11 10° SW 18:52:19 46° WSW 18:52:19 46° WSW
SL-16 R/B 2.8 18:49:34 10° NNW 18:55:06 54° WSW 18:55:08 54° WSW
Cosmos 2263 Rocket 2.9 18:51:47 10° SSW 18:55:57 48° SW 18:55:57 48° SW
Lacrosse 5 4.2 19:19:21 10° WNW 19:21:09 20° WNW 19:21:09 20° WNW
CENTAUR R/B 4.1 19:21:21 10° NNW 19:25:50 36° NNW 19:25:50 36° NNW
